Location: Colonial Hills
(40.5656°N, 77.6119°W)
Time: 02:39:05
(UTC+00:00)

X-37B - Pass Details

Date: 26 November 2020
Orbit: 383 x 391 km, 45.1° (Epoch: 22 January)

Event Time Altitude Azimuth Distance (km) Brightness Sun altitude
Rises 23:32:04 0° 232° (SW) 2,251 5.6 -19.8°
Reaches altitude 10° 23:34:10 10° 227° (SW) 1,402 4.2 -20.2°
Enters shadow 23:36:36 41° 190° (S) 572 1.5 -20.7°
